This is the latest recevied weather packets stored in our database for station/object OM8AGG-15. If no packets are shown the sender has not sent any weather packets the latest 10 day(s).
| Time | Temp. | Humidity | Pressure | Rain* | Wind** | Luminosity | Snow |
|---|---|---|---|---|---|---|---|
| 1788383868 | 19.44° C | 46% | 1019.7 hPa | - | - | - | - |
| 1788382967 | 19.44° C | 46% | 1019.7 hPa | - | - | - | - |
| 1788382067 | 20° C | 45% | 1019.6 hPa | - | - | - | - |
| 1788381167 | 20° C | 45% | 1019.5 hPa | - | - | - | - |
| 1788380266 | 20° C | 44% | 1019.3 hPa | - | - | - | - |
| 1788379366 | 20° C | 44% | 1019.3 hPa | - | - | - | - |
| 1788378466 | 20.56° C | 43% | 1019.4 hPa | - | - | - | - |
| 1788377565 | 20.56° C | 42% | 1019.3 hPa | - | - | - | - |
| 1788376665 | 20.56° C | 42% | 1019.3 hPa | - | - | - | - |
| 1788375764 | 21.11° C | 40% | 1019.3 hPa | - | - | - | - |
| 1788374864 | 21.11° C | 40% | 1019.3 hPa | - | - | - | - |
| 1788373964 | 21.11° C | 40% | 1019.2 hPa | - | - | - | - |
| 1788373064 | 21.67° C | 39% | 1019.2 hPa | - | - | - | - |
| 1788372164 | 22.22° C | 36% | 1019.2 hPa | - | - | - | - |
| 1788371264 | 22.22° C | 36% | 1019 hPa | - | - | - | - |
| 1788370364 | 22.78° C | 35% | 1018.9 hPa | - | - | - | - |
| 1788369463 | 23.33° C | 33% | 1019 hPa | - | - | - | - |
| 1788368562 | 23.33° C | 32% | 1018.9 hPa | - | - | - | - |
| 1788367662 | 23.89° C | 32% | 1019 hPa | - | - | - | - |
| 1788366761 | 23.89° C | 31% | 1018.9 hPa | - | - | - | - |
| 1788365860 | 23.89° C | 31% | 1018.9 hPa | - | - | - | - |
| 1788364960 | 24.44° C | 30% | 1019.1 hPa | - | - | - | - |
| 1788364060 | 24.44° C | 31% | 1019.1 hPa | - | - | - | - |
| 1788363159 | 25° C | 30% | 1019.2 hPa | - | - | - | - |
| 1788362259 | 24.44° C | 30% | 1019.2 hPa | - | - | - | - |
* Rain since midnight (hover to see other rain measurements)
** Current wind speed in m/s (hover to see current wind gust speed)